This demonstration page uses our WeatherBlox Daily Observations layout. Learn more.

Left ArrowRight Arrow

34.16533, -84.80231

Hourly Observations for June 4, 2022

Temp ( °F °C ) Dew Point ( °F °C ) Humidity (%) Winds ( mph kmh ) Pressure ( in mb ) Visibility ( mi km ) Precip ( " mm )
12:15 am 00:15 undefined N/A N/A N/A undefined N/A N/A N/A 0.00 0.00
12:35 am 00:35 undefined N/A N/A N/A undefined N/A N/A N/A 0.00 0.00
12:55 am 00:55 undefined N/A N/A N/A undefined N/A N/A N/A 0.00 0.00
1:15 am 01:15 undefined N/A N/A N/A undefined N/A N/A N/A 0.00 0.00
1:35 am 01:35 undefined N/A N/A N/A undefined N/A N/A N/A 0.00 0.00
1:55 am 01:55 undefined N/A N/A N/A undefined N/A N/A N/A 0.00 0.00
2:15 am 02:15 undefined N/A N/A N/A undefined N/A N/A N/A 0.00 0.00
2:35 am 02:35 undefined N/A N/A N/A undefined N/A N/A N/A 0.00 0.00
2:55 am 02:55 undefined N/A N/A N/A undefined N/A N/A N/A 0.00 0.00
3:15 am 03:15 undefined N/A N/A N/A undefined N/A N/A N/A 0.00 0.00
3:35 am 03:35 undefined N/A N/A N/A undefined N/A N/A N/A 0.00 0.00
3:55 am 03:55 undefined N/A N/A N/A undefined N/A N/A N/A 0.00 0.00
4:15 am 04:15 undefined N/A N/A N/A undefined N/A N/A N/A 0.00 0.00
4:35 am 04:35 undefined N/A N/A N/A undefined N/A N/A N/A 0.00 0.00
4:55 am 04:55 undefined N/A N/A N/A undefined N/A N/A N/A 0.00 0.00
5:15 am 05:15 undefined N/A N/A N/A undefined N/A N/A N/A 0.00 0.00
5:35 am 05:35 undefined N/A N/A N/A undefined N/A N/A N/A 0.00 0.00
5:55 am 05:55 undefined N/A N/A N/A undefined N/A N/A N/A 0.00 0.00
6:15 am 06:15 undefined N/A N/A N/A undefined N/A N/A N/A 0.00 0.00
6:35 am 06:35 undefined N/A N/A N/A undefined N/A N/A N/A 0.00 0.00
6:55 am 06:55 undefined N/A N/A N/A undefined N/A N/A N/A 0.00 0.00
7:15 am 07:15 undefined N/A N/A N/A undefined N/A N/A N/A 0.00 0.00
7:35 am 07:35 undefined N/A N/A N/A undefined N/A N/A N/A 0.00 0.00
7:55 am 07:55 undefined N/A N/A N/A undefined N/A N/A N/A 0.00 0.00
8:15 am 08:15 undefined N/A N/A N/A undefined N/A N/A N/A 0.00 0.00
8:35 am 08:35 undefined N/A N/A N/A undefined N/A N/A N/A 0.00 0.00
8:55 am 08:55 undefined N/A N/A N/A undefined N/A N/A N/A 0.00 0.00
9:15 am 09:15 undefined N/A N/A N/A undefined N/A N/A N/A 0.00 0.00
9:35 am 09:35 undefined N/A N/A N/A undefined N/A N/A N/A 0.00 0.00
9:55 am 09:55 undefined N/A N/A N/A undefined N/A N/A N/A 0.00 0.00
10:15 am 10:15 undefined N/A N/A N/A undefined N/A N/A N/A 0.00 0.00
10:35 am 10:35 undefined N/A N/A N/A undefined N/A N/A N/A 0.00 0.00
10:55 am 10:55 undefined N/A N/A N/A undefined N/A N/A N/A 0.00 0.00
11:15 am 11:15 undefined N/A N/A N/A undefined N/A N/A N/A 0.00 0.00
11:35 am 11:35 undefined N/A N/A N/A undefined N/A N/A N/A 0.00 0.00
11:55 am 11:55 undefined N/A N/A N/A undefined N/A N/A N/A 0.00 0.00
12:15 pm 12:15 undefined N/A N/A N/A undefined N/A N/A N/A 0.00 0.00
12:35 pm 12:35 undefined N/A N/A N/A undefined N/A N/A N/A 0.00 0.00
12:55 pm 12:55 undefined N/A N/A N/A undefined N/A N/A N/A 0.00 0.00
1:15 pm 13:15 undefined N/A N/A N/A undefined N/A N/A N/A 0.00 0.00
1:35 pm 13:35 undefined N/A N/A N/A undefined N/A N/A N/A 0.00 0.00
1:55 pm 13:55 undefined N/A N/A N/A undefined N/A N/A N/A 0.00 0.00
2:15 pm 14:15 undefined N/A N/A N/A VRB 7 11 N/A N/A 0.00 0.00
2:35 pm 14:35 undefined 82 28 55 13 40 40 ENE 7 11 29.84 1011 10 16 0.00 0.00
2:55 pm 14:55 Sunny 82 28 55 13 40 40 ENE 9 15 29.84 1011 10 16 0.00 0.00
3:15 pm 15:15 Mostly Sunny 84 29 55 13 37 37 VRB 3 6 29.83 1010 10 16 0.00 0.00
3:35 pm 15:35 Mostly Sunny 84 29 55 13 37 37 E 8 13 29.83 1010 10 16 0.00 0.00
3:55 pm 15:55 Mostly Sunny 84 29 55 13 37 37 ENE 6 9 29.83 1010 10 16 0.00 0.00
4:15 pm 16:15 Mostly Sunny 84 29 55 13 37 37 E 8 13 29.82 1010 10 16 0.00 0.00
4:35 pm 16:35 Partly Cloudy 86 30 55 13 35 35 VRB 6 9 29.82 1010 10 16 0.00 0.00
4:55 pm 16:55 Mostly Sunny 84 29 55 13 37 37 VRB 5 7 29.82 1010 10 16 0.00 0.00
5:15 pm 17:15 Mostly Sunny 82 28 55 13 40 40 Calm 29.82 1010 10 16 0.00 0.00
5:35 pm 17:35 Sunny 84 29 55 13 37 37 ESE 5 7 29.82 1010 10 16 0.00 0.00
5:55 pm 17:55 Sunny 82 28 55 13 40 40 Calm 29.81 1010 9 14 0.00 0.00
6:15 pm 18:15 Mostly Sunny 84 29 55 13 37 37 E 6 9 29.81 1009 10 16 0.00 0.00
6:35 pm 18:35 Sunny 84 29 55 13 37 37 Calm 29.81 1009 10 16 0.00 0.00
6:55 pm 18:55 Sunny 82 28 57 14 42 42 VRB 5 7 29.81 1010 10 16 0.00 0.00
7:15 pm 19:15 Sunny 82 28 55 13 40 40 Calm 29.81 1010 10 16 0.00 0.00
7:35 pm 19:35 Mostly Sunny 81 27 57 14 45 45 Calm 29.81 1010 10 16 0.00 0.00
7:55 pm 19:55 Sunny 79 26 57 14 48 48 Calm 29.82 1010 10 16 0.00 0.00
8:15 pm 20:15 Sunny 79 26 57 14 48 48 NNE 3 6 29.82 1010 10 16 0.00 0.00
8:35 pm 20:35 Partly Cloudy 77 25 59 15 54 54 Calm 29.82 1010 10 16 0.00 0.00
8:55 pm 20:55 Mostly Cloudy 77 25 61 16 57 57 NNE 6 9 29.82 1010 10 16 0.00 0.00
9:15 pm 21:15 Mostly Clear 77 25 61 16 57 57 NNE 8 13 29.82 1010 10 16 0.00 0.00
9:35 pm 21:35 Clear 77 25 57 14 51 51 NNE 7 11 29.82 1010 10 16 0.00 0.00
9:55 pm 21:55 Clear 75 24 55 13 50 50 Calm 29.82 1010 10 16 0.00 0.00
10:15 pm 22:15 Clear 75 24 59 15 57 57 Calm 29.82 1010 10 16 0.00 0.00
10:35 pm 22:35 Clear 73 23 61 16 65 65 Calm 29.83 1010 10 16 0.00 0.00
10:55 pm 22:55 Clear 72 22 61 16 69 69 Calm 29.84 1010 10 16 0.00 0.00
11:15 pm 23:15 Clear 70 21 61 16 73 73 Calm 29.84 1010 10 16 0.00 0.00
11:35 pm 23:35 Clear 72 22 61 16 69 69 Calm 29.84 1010 10 16 0.00 0.00
11:55 pm 23:55 Clear 70 21 61 16 73 73 Calm 29.85 1011 10 16 0.00 0.00

Powered by AerisWeather